THORAD AGENA D DEB, 42526

Orbit data source: Space-Track

THORAD AGENA D DEB, 42526 is space debris in SSO originally from a launch on Wed, 08 Apr 1970 UTC launched from the Air Force Western Test Range (AFWTR). Debris objects in space refer to the collection of defunct objects orbiting the Earth. Examples of debris include non-operational satellites, rocket bodies, and fragments generated from explosions, collisions, or faulty payload assembly.

Loading next visibility...
Identifier
42526, 1970-025SG
Orbit
SSO
Country
Flag of USUS
Related business
Manufacturer
Unknown
Mission
Spacecraft
Bus & Motor
Unknown
Mass
Unknown
Launch date (UTC)
1970-04-08 (56 years ago)
Launch vehicle
Unknown
Launch site
Air Force Western Test Range (AFWTR)
Object type
Payload
Rocket body
Debris
Shape & HBR
Unknown shape, 0.1 m
Radar Cross Section
Small (<0.1 m²)

Expand to show TLE details & history
Last TLE update: 4 days ago

TLE from 4 days ago
0 THORAD AGENA D DEB
1 42526U 70025SG  26169.64049991 -.00000049  00000-0 -71491-7 0  9993
2 42526  99.8091 113.7195 0088690 121.3673  52.7177 13.92849518637788
Epoch: 2026-06-18T15:22Z
TLE epoch observation values (Epoch: 2026-06-18T15:22:19.192Z)
Latitude
4.94199°
Longitude
157.11069°
Altitude
882.155 km
Speed
7.431 km/s
True Right ascension
19h 38m 17s
True Declination
4° 54' 47"
Sunlit
Object was in full shadow at epoch
Visualization orbit readout
Latitude
Unknown
Longitude
Unknown
Altitude
Unknown
Speed
Unknown
Apparent Right ascension
Unknown
Apparent Declination
Unknown
Sunlit
N/A
Visualization observer readout
Local Sidereal Time
21:41:41
Azimuth
Unknown
Elevation
Unknown
Doppler factor
Unknown
Orbital elements
Apogee altitude
980.603 km
Perigee altitude
851.221 km
Semi-major axis
7,294.049 km
Eccentricity
0.00887
Inclination
99.8091°
RAAN
113.7195°
Arg. of periapsis
121.3673°
True anomaly
53.53178°
Mean anomaly
52.7177°
Eccentric anomaly
53.12419°
Mean motion
3.4841 °/min
Orbital period
103.33 mins
BSTAR
-7.1491e-8
Loading maneuver chart data...
Computing Atmospheric mass density...

Documentation

Showing up to 5 results
|